Regional Weather Roundup
Issued by NWS Sioux Falls, SD

Home | Current Version | Previous Version | Graphics & Text | Print | Product List | Glossary On
Versions: 1 2 3 4 5 6 7 8 9 10 11 12 13 14 15 16 17 18 19 20 21 22 23 24 25 26 27 28 29 30 31 32 33 34 35 36 37 38 39 40 41 42 43 44 45 46 47 48 49 50
000
ASUS43 KFSD 300002
RWRFSD

WEATHER ROUNDUP FOR SE SOUTH DAKOTA/SW MINNESOTA/NW IOWA
NATIONAL WEATHER SERVICE SIOUX FALLS SD
700 PM CDT WED OCT 29 2014

NOTE: "FAIR" INDICATES FEW OR NO CLOUDS BELOW 12,000 FEET WITH NO
SIGNIFICANT WEATHER AND OR OBSTRUCTIONS TO VISIBILITY.


SDZ038>040-050-052>070-300100-
SOUTHEAST SOUTH DAKOTA

CITY           SKY/WX    TMP DP  RH WIND       PRES   REMARKS
CHAMBERLAIN    CLOUDY    51  31  46 E5        29.97S
6HR MIN TEMP:  51; 6HR MAX TEMP:  58;

HURON          MOCLDY    49  32  52 S7        30.01S
6HR MIN TEMP:  47; 6HR MAX TEMP:  53;

MADISON        FAIR      41  30  65 S8        30.04S
MITCHELL       MOCLDY    50  33  52 SE7       30.02S
6HR MIN TEMP:  47; 6HR MAX TEMP:  55;

SIOUX FALLS    MOCLDY    45  30  55 S7        30.05R
6HR MIN TEMP:  45; 6HR MAX TEMP:  51;

WINNER         CLOUDY    59  24  26 E3        29.96R
YANKTON        PTCLDY    48  28  46 SE5       30.04S
$$

MNZ071-072-080-081-089-090-097-098-300100-
SOUTHWEST MINNESOTA

CITY           SKY/WX    TMP DP  RH WIND       PRES   REMARKS
FAIRMONT       CLEAR     43  27  52 S3        30.08S
JACKSON        CLEAR     45  28  53 CALM      30.08R
LUVERNE        CLEAR     41  30  65 S3        30.06R
MARSHALL       PTCLDY    46  28  49 CALM      30.04S
6HR MIN TEMP:  43; 6HR MAX TEMP:  50;

MONTEVIDEO     PTCLDY    37  32  81 SE5       30.06F
PIPESTONE      PTCLDY    41  28  60 SW5       30.04S
REDWOOD FALLS  MOCLDY    44  29  55 E5        30.06F
TRACY          PTCLDY    42  31  63 CALM      30.05F
WINDOM         CLEAR     45  28  53 CALM      30.07R
WORTHINGTON    CLEAR     43  28  56 S6        30.06S
$$

IAZ001>003-012>014-020>022-031-032-NEZ013-014-SDZ071-300100-
NORTHWEST IOWA

CITY           SKY/WX    TMP DP  RH WIND       PRES   REMARKS
CHEROKEE       CLEAR     45  32  60 SE5       30.08S
DENISON        CLEAR     46  32  57 SE5       30.07S
ESTHERVILLE    CLEAR     42  28  57 S5        30.07S
LE MARS        CLEAR     46  32  57 S3        30.07S
ORANGE CITY    CLEAR     46  28  49 CALM      30.07R
SHELDON        CLEAR     41  30  65 S5        30.05S
SIOUX CITY     CLEAR     47  31  53 SE5       30.07S
6HR MIN TEMP:  46; 6HR MAX TEMP:  56;

SPENCER        CLEAR     40  29  64 S7        30.07S
6HR MIN TEMP:  40; 6HR MAX TEMP:  52;

STORM LAKE     CLEAR     45  30  57 S7        30.09S
$$

ABBREVIATIONS USED IN REMARKS
   TC - TEMPERATURE IN CELSIUS
  WCI - WIND CHILL INDEX
   HX - HEAT INDEX
  VSB - VISIBILITY




USA.gov is the U.S. government's official web portal to all federal, state and local government web resources and services.